Regional Weather Roundup
Issued by NWS

Home | Current Version | Previous Version | Text Only | Print | Product List | Glossary Off
Versions: 1 2 3 4 5 6 7 8 9 10 11 12 13 14 15 16 17 18 19 20 21 22 23 24 25 26 27 28 29 30 31 32 33 34 35 36 37 38 39 40 41 42 43 44 45 46 47 48 49 50

000
ASUS43 KLOT 161808
RWRIL

ILLINOIS REGIONAL WEATHER ROUNDUP
NATIONAL WEATHER SERVICE CHICAGO/ROMEOVILLE IL
100 PM CDT WED AUG 16 2017

NOTE: "FAIR" INDICATES FEW OR NO CLOUDS BELOW 12,000 FEET WITH NO
SIGNIFICANT WEATHER AND/OR OBSTRUCTIONS TO VISIBILITY.

* THESE STATIONS ARE NOT UNDER NWS QUALITY CONTROL. THEY ALSO MAY NOT
  REPORT WEATHER SUCH AS PRECIPITATION OR FOG.

ILZ001-002-007-009-015-016-024-161900-
NORTHWEST ILLINOIS

CITY           SKY/WX    TMP DP  RH WIND       PRES   REMARKS
MOLINE         CLOUDY    81  71  71 SE10      29.89S HX  85
6HR MIN TEMP:  67; 6HR MAX TEMP:  85;

STERLING*      MOSUNNY   84  73  69 SE8G16    29.93F HX  90
SAVANNA*       MOSUNNY   86  71  61 SE13G21   29.91F HX  91
$$

ILZ003-004-008-010-011-017-018-161900-
NORTH CENTRAL ILLINOIS

CITY           SKY/WX    TMP DP  RH WIND       PRES   REMARKS
ROCKFORD       MOSUNNY   88  69  53 E12       29.95F HX  92
6HR MIN TEMP:  67; 6HR MAX TEMP:  88;

FREEPORT*      SUNNY     83  72  67 SE9       29.95F HX  88
ROCHELLE*      PTSUNNY   83  72  69 S8G17     29.95F HX  88
DE KALB*       SUNNY     85  71  61 SE13      29.97F HX  90
PERU*          PTSUNNY   83  70  64 S16       29.94F HX  86
$$

ILZ005-006-012>014-019>023-161900-
NORTHEAST ILLINOIS

CITY           SKY/WX    TMP DP  RH WIND       PRES   REMARKS
CHICAGO-OHARE  MOSUNNY   86  66  51 VRB7      29.95F HX  88
6HR MIN TEMP:  69; 6HR MAX TEMP:  87;

CHICAGO-MIDWAY MOSUNNY   87  66  49 S9        29.95F HX  89
6HR MIN TEMP:  72; 6HR MAX TEMP:  88;

AURORA         MOSUNNY   87  71  58 SE12      29.96F HX  93
6HR MIN TEMP:  65; 6HR MAX TEMP:  88;

LANSING*       MOSUNNY   87  66  49 S8        29.97F HX  89
JOLIET*        MOSUNNY   87  72  60 S8        29.96S HX  94
WAUKEGAN       SUNNY     77  68  73 E7        29.98F
6HR MIN TEMP:  63; 6HR MAX TEMP:  77;

DUPAGE AIRPORT MOSUNNY   86  69  56 SE8       29.95F HX  90
6HR MIN TEMP:  65; 6HR MAX TEMP:  86;

KANKAKEE*      CLOUDY    85  70  60 S9        29.98S HX  90
WHEELING       SUNNY     82  70  66 E6        29.98F HX  86
6HR MIN TEMP:  66; 6HR MAX TEMP:  83;

MORRIS*        MOSUNNY   85  73  67 S12       29.95S HX  91
ROMEOVILLE*    SUNNY     87  66  50 S12G17    29.96F HX  89
NORTHERLY ISL    N/A     79  68  69 NE7         N/A  HX  81
$$

LMZ740>746-161900-
SOUTHERN LAKE MICHIGAN

STATION/POSITION SKY/WX   TEMP    WIND        PRES    VSBY  WAVE
                          AIR SEA DIR/SP/G                  HT/PER
                          (F)     (DEG/KT/KT) (MB)    (MI)  (FT/S)
SOUTHERN BUOY              72 72   80/  6/  6 1016.2          1
WILMETTE HARBOR            73 73   90/  8/  8   N/A           1/ 4
HARRISON CRIB              74      70/  7/  8   N/A
CALUMET HARBOR             77      50/  6/  9 1014.4F
BURNS HARBOR               78      70/  4/  7 1015.2F
MICHIGAN CITY              81     360/  5/  6   N/A
MICHIGAN CITY 6N           76 75   50/  6/  8   N/A           1/ 4
ST. JOSEPH                 77 76   50/  6/  6 1015.0          1/ 3
$$

ILZ025>027-034>036-040-047-049-050-058-095>099-161900-
WEST-CENTRAL ILLINOIS

CITY           SKY/WX    TMP DP  RH WIND       PRES   REMARKS
QUINCY         LGT RAIN  81  73  76 S15       29.91F HX  86
GALESBURG*     CLOUDY    78  71  80 SE9G16    29.92F HX  80
MACOMB*        CLOUDY    77  73  86 S12G17    29.93F
JACKSONVILLE*  LGT RAIN  77  74  92 SE9       29.93F
PITTSFIELD*    MOSUNNY   77  74  91 S7        29.94S
$$

ILZ028>032-037-038-041>044-048-051>054-059>061-161900-
CENTRAL ILLINOIS

CITY           SKY/WX    TMP DP  RH WIND       PRES   REMARKS
PONTIAC        PTSUNNY   83  74  75 S10G18    29.97S HX  89
BLOOMINGTON    CLOUDY    81  72  74 S17       29.97F HX  85
DECATUR        LGT RAIN  76  74  93 SE8       29.98S FOG
PEORIA         CLOUDY    80  73  79 S18G24    29.93S HX  84
6HR MIN TEMP:  70; 6HR MAX TEMP:  82;

LACON*         CLOUDY    82  72  72 SE13      29.93S HX  87
LINCOLN*       CLOUDY    80  74  82 S12       29.96S HX  84
SPRINGFIELD    CLOUDY    81  75  82 S12       29.96S HX  87
6HR MIN TEMP:  72; 6HR MAX TEMP:  82;

TAYLORVILLE    CLOUDY    78  74  85 S7        29.97S HX  81
6HR MIN TEMP:  70; 6HR MAX TEMP:  79;

$$

ILZ033-039-045-046-055>057-062-063-161900-
EAST-CENTRAL ILLINOIS

CITY           SKY/WX    TMP DP  RH WIND       PRES   REMARKS
CHAMPAIGN      CLOUDY    83  72  69 S10G17    29.99S HX  88
RANTOUL*       CLOUDY    85  74  69 S8        29.98F HX  93
MATTOON        LGT RAIN  79  74  84 S7        29.99S HX  82
PARIS*         CLOUDY    82  74  77 SE9       30.01R HX  89
$$

ILZ079-100>102-161900-
SOUTHWEST ILLINOIS

CITY           SKY/WX    TMP DP  RH WIND       PRES   REMARKS
ALTON          PTSUNNY   84  77  79 SE8       29.95F HX  94
BELLEVILLE     CLOUDY    88  76  69 S10       29.95F HX  99
CAHOKIA*       CLOUDY    88  74  63 SW8       29.94F HX  96
SPARTA*        CLOUDY    83  76  78 S6        29.97F HX  91
$$

ILZ064>066-069>071-074>076-080>082-084>086-088>090-092>094-161900-
SOUTH-CENTRAL ILLINOIS

CITY           SKY/WX    TMP DP  RH WIND       PRES   REMARKS
CARBONDALE     CLOUDY    85  78  80 S9        29.97F HX  96
6HR MIN TEMP:  73; 6HR MAX TEMP:  86; 6HR PCP: TRACE;

CAIRO*         CLOUDY    84  79  83 S8        29.98F HX  96
EFFINGHAM*     CLOUDY    77  76  98 CALM      30.02R
MARION         PTSUNNY   86  82  89 S12       29.99F HX 105
MT. VERNON     CLOUDY    83  77  82 SE6       29.98F HX  92
CENTRALIA*     CLOUDY    83  77  80 S6        29.97F HX  92
SALEM*         CLOUDY    83  74  76 SE6       29.98F HX  89
METROPOLIS*    CLOUDY    87  78  74 S5        29.99F HX  99
$$

ILZ067-068-072-073-078-083-087-091-161900-
SOUTHEAST ILLINOIS

CITY           SKY/WX    TMP DP  RH WIND       PRES   REMARKS
LAWRENCEVILLE  MOSUNNY   83  74  74 S12       30.00F HX  89
FLORA*         LGT RAIN  80  73  80 S6        29.99F HX  84
FAIRFIELD*     CLOUDY    81  74  80 SE3       29.99S HX  86
HARRISBURG*    CLOUDY    83  77  81 S6        29.99F HX  93
ROBINSON*      PTSUNNY   83  74  75 S7        30.00F HX  89
CARMI*         CLOUDY    82  76  82 SE5       29.99F HX  90
$$

ABBREVIATIONS USED IN REMARKS
   TC - TEMPERATURE IN CELSIUS
  WCI - WIND CHILL INDEX
   HX - HEAT INDEX
  VSB - VISIBILITY
$$




USA.gov is the U.S. government's official web portal to all federal, state and local government web resources and services.